Location: Hilton Head Island
(32.2163°N, 80.7526°W)
Time: 14:40:23
(UTC-04:00)

Vanguard 2 Rocket - Pass Details

Date: 21 February 2026
Orbit: 553 x 3286 km, 32.9° (Epoch: 10 March)

Event Time Altitude Azimuth Distance (km) Brightness Sun altitude
Rises 11:26:49 0° 241° (WSW) 6,973 11.5 44.3°
Reaches altitude 10° 11:31:16 10° 240° (WSW) 6,108 11.3 44.6°
Maximum altitude 11:51:27 75° 159° (SSE) 3,187 10.9 46.1°
Drops below altitude 10° 12:07:24 10° 78° (ENE) 4,992 10.8 46.8°
Sets 12:10:36 0° 76° (ENE) 5,702 10.9 47.0°
